Escanaba, MI

11:45 AM EDT on August 22, 2017 (GMT -0400)
Delta County

Weather History for KESC - October, 2014

Change the Weather History Date:

Thursday, October 30, 2014

  Actual Average Record
Temperature  
Mean Temperature 40 °F -  
Max Temperature 44 °F 50 °F 67 °F (1950)
Min Temperature 35 °F 35 °F 19 °F (1988)
Degree Days  
Heating Degree Days 26    
Moisture  
Dew Point 33 °F    
Average Humidity 74    
Maximum Humidity 93    
Minimum Humidity 57    
Precipitation  
Precipitation 0.00 in - - ()
Sea Level Pressure  
Sea Level Pressure 30.03 in    
Wind  
Wind Speed 3 mph (West)    
Max Wind Speed 13 mph    
Max Gust Speed -    
Visibility 10 miles    
Events      
Averages and records for this station are not official NWS values.
T = Trace of Precipitation, MM = Missing Value Source: NWS Daily Summary

Daily Weather History Graph

Daily Weather History Graph

Search for Another Location

Airport or City:

Trip Planner

Search our weather history database for the weather conditions in past years. The results will help you decide how hot, cold, wet, or windy it might be!

Date:

Astronomy

Oct. 30, 2014 Rise Set
Actual Time 8:25 AM EDT 6:37 PM EDT
Civil Twilight 7:54 AM EDT 7:08 PM EDT
Nautical Twilight 7:19 AM EDT 7:43 PM EDT
Astronomical Twilight 6:45 AM EDT 8:18 PM EDT
Moon 2:30 PM EDT (10/30) No Moon Set
Length of Visible Light 11h 14m
Length of Day
10h 12m
Waxing Crescent, 45% of the Moon is Illuminated
Oct 30
Waxing Crescent
Oct 30
First Quarter
Nov 6
Full
Nov 14
Last Quarter
Nov 22
New

Hourly Weather History & Observations

Time (EDT) Temp. Windchill Dew Point Humidity Pressure Visibility Wind Dir Wind Speed Gust Speed Precip Events Conditions
12:15 AM 35.6 °F - 32.0 °F 87% 30.09 in 10.0 mi Calm Calm - N/A   Overcast
12:35 AM 35.6 °F - 33.8 °F 93% 30.09 in 10.0 mi Calm Calm - N/A   Overcast
12:55 AM 37.4 °F - 33.8 °F 87% 30.09 in 10.0 mi Calm Calm - N/A   Overcast
1:15 AM 37.4 °F - 33.8 °F 87% 30.08 in 10.0 mi Calm Calm - N/A   Overcast
1:35 AM 37.4 °F - 33.8 °F 87% 30.08 in 10.0 mi Calm Calm - N/A   Overcast
1:55 AM 37.4 °F 34.9 °F 33.8 °F 87% 30.09 in 10.0 mi West 3.5 mph - N/A   Overcast
2:15 AM 37.4 °F 34.9 °F 33.8 °F 87% 30.08 in 10.0 mi West 3.5 mph - N/A   Overcast
2:35 AM 37.4 °F - 33.8 °F 87% 30.08 in 10.0 mi Calm Calm - N/A   Overcast
2:55 AM 37.4 °F - 33.8 °F 87% 30.08 in 10.0 mi Calm Calm - N/A   Overcast
3:15 AM 37.4 °F - 33.8 °F 87% 30.08 in 10.0 mi Calm Calm - N/A   Overcast
3:35 AM 37.4 °F - 33.8 °F 87% 30.07 in 10.0 mi Calm Calm - N/A   Overcast
3:55 AM 37.4 °F - 33.8 °F 87% 30.07 in 10.0 mi Calm Calm - N/A   Overcast
4:15 AM 37.4 °F 34.9 °F 33.8 °F 87% 30.06 in 10.0 mi West 3.5 mph - N/A   Overcast
4:35 AM 37.4 °F - 33.8 °F 87% 30.06 in 10.0 mi Calm Calm - N/A   Overcast
4:55 AM 37.4 °F 34.9 °F 33.8 °F 87% 30.06 in 10.0 mi West 3.5 mph - N/A   Overcast
5:15 AM 39.2 °F 34.2 °F 33.8 °F 81% 30.06 in 10.0 mi SW 6.9 mph - N/A   Overcast
5:35 AM 39.2 °F 35.9 °F 33.8 °F 81% 30.06 in 10.0 mi SSW 4.6 mph - N/A   Overcast
5:55 AM 39.2 °F 35.0 °F 33.8 °F 81% 30.06 in 10.0 mi SSW 5.8 mph - N/A   Overcast
6:15 AM 39.2 °F 35.9 °F 33.8 °F 81% 30.06 in 10.0 mi WSW 4.6 mph - N/A   Overcast
6:35 AM 39.2 °F 35.9 °F 33.8 °F 81% 30.06 in 10.0 mi WSW 4.6 mph - N/A   Overcast
6:55 AM 39.2 °F 37.0 °F 33.8 °F 81% 30.07 in 10.0 mi West 3.5 mph - N/A   Overcast
7:15 AM 39.2 °F 35.0 °F 33.8 °F 81% 30.06 in 10.0 mi WNW 5.8 mph - N/A   Overcast
7:35 AM 39.2 °F - 33.8 °F 81% 30.06 in 10.0 mi Calm Calm - N/A   Overcast
7:55 AM 39.2 °F - 33.8 °F 81% 30.06 in 10.0 mi Calm Calm - N/A   Overcast
8:15 AM 39.2 °F 37.0 °F 33.8 °F 81% 30.06 in 10.0 mi SSW 3.5 mph - N/A   Overcast
8:35 AM 39.2 °F - 33.8 °F 81% 30.06 in 10.0 mi Calm Calm - N/A   Overcast
8:55 AM 39.2 °F - 33.8 °F 81% 30.06 in 10.0 mi Calm Calm - N/A   Overcast
9:15 AM 39.2 °F - 33.8 °F 81% 30.05 in 10.0 mi Calm Calm - N/A   Overcast
9:35 AM 41.0 °F - 33.8 °F 76% 30.06 in 10.0 mi Calm Calm - N/A   Overcast
9:55 AM 41.0 °F - 33.8 °F 76% 30.05 in 10.0 mi Calm Calm - N/A   Overcast
10:15 AM 42.8 °F - 33.8 °F 70% 30.05 in 10.0 mi Calm Calm - N/A   Overcast
10:35 AM 42.8 °F - 30.2 °F 61% 30.05 in 10.0 mi Calm Calm - N/A   Overcast
10:55 AM 44.6 °F - 32.0 °F 61% 30.04 in 10.0 mi Calm Calm - N/A   Overcast
11:15 AM 44.6 °F 42.2 °F 32.0 °F 61% 30.04 in 10.0 mi South 4.6 mph - N/A   Overcast
11:35 AM 44.6 °F 41.4 °F 32.0 °F 61% 30.03 in 10.0 mi South 5.8 mph - N/A   Overcast
11:55 AM 44.6 °F 42.2 °F 30.2 °F 57% 30.03 in 10.0 mi WSW 4.6 mph - N/A   Overcast
12:15 PM 44.6 °F 39.7 °F 30.2 °F 57% 30.03 in 10.0 mi West 9.2 mph - N/A   Overcast
12:35 PM 44.6 °F 40.7 °F 32.0 °F 61% 30.03 in 10.0 mi WSW 6.9 mph - N/A   Overcast
12:55 PM 44.6 °F 41.4 °F 32.0 °F 61% 30.03 in 10.0 mi West 5.8 mph - N/A   Overcast
1:15 PM 44.6 °F 41.4 °F 32.0 °F 61% 30.02 in 10.0 mi NW 5.8 mph - N/A   Overcast
1:35 PM 44.6 °F 40.7 °F 33.8 °F 66% 30.02 in 10.0 mi West 6.9 mph - N/A   Overcast
1:55 PM 44.6 °F 41.4 °F 33.8 °F 66% 30.01 in 10.0 mi NW 5.8 mph - N/A   Overcast
2:15 PM 44.6 °F 39.7 °F 32.0 °F 61% 30.00 in 10.0 mi West 9.2 mph - N/A   Overcast
2:35 PM 44.6 °F 40.2 °F 32.0 °F 61% 30.00 in 10.0 mi WNW 8.1 mph - N/A   Overcast
2:55 PM 44.6 °F 39.2 °F 33.8 °F 66% 29.99 in 10.0 mi West 10.4 mph - N/A   Overcast
3:15 PM 44.6 °F 38.8 °F 32.0 °F 61% 29.99 in 10.0 mi West 11.5 mph - N/A   Overcast
3:35 PM 44.6 °F 38.4 °F 32.0 °F 61% 29.99 in 10.0 mi West 12.7 mph - N/A   Overcast
3:55 PM 44.6 °F 38.8 °F 30.2 °F 57% 29.98 in 10.0 mi WNW 11.5 mph - N/A   Overcast
4:15 PM 44.6 °F 40.2 °F 32.0 °F 61% 29.98 in 10.0 mi WNW 8.1 mph - N/A   Overcast
4:35 PM 44.6 °F 39.7 °F 32.0 °F 61% 29.98 in 10.0 mi West 9.2 mph - N/A   Overcast
4:55 PM 44.6 °F 40.7 °F 32.0 °F 61% 29.98 in 10.0 mi NW 6.9 mph - N/A   Overcast
5:15 PM 44.6 °F 40.2 °F 30.2 °F 57% 29.99 in 10.0 mi WNW 8.1 mph - N/A   Overcast
5:35 PM 44.6 °F 40.7 °F 33.8 °F 66% 29.99 in 10.0 mi WNW 6.9 mph - N/A   Overcast
5:55 PM 44.6 °F 40.7 °F 33.8 °F 66% 29.99 in 10.0 mi West 6.9 mph - N/A   Overcast
6:15 PM 44.6 °F 40.2 °F 33.8 °F 66% 29.98 in 10.0 mi West 8.1 mph - N/A   Overcast
6:35 PM 44.6 °F 40.2 °F 32.0 °F 61% 29.99 in 10.0 mi West 8.1 mph - N/A   Overcast
6:55 PM 42.8 °F 38.6 °F 32.0 °F 66% 29.99 in 10.0 mi West 6.9 mph - N/A   Overcast
7:15 PM 42.8 °F 39.3 °F 32.0 °F 66% 29.98 in 10.0 mi West 5.8 mph - N/A   Overcast
7:35 PM 42.8 °F 38.0 °F 32.0 °F 66% 29.99 in 10.0 mi West 8.1 mph - N/A   Overcast
7:55 PM 42.8 °F 37.0 °F 33.8 °F 70% 29.98 in 10.0 mi WNW 10.4 mph - N/A   Overcast
8:15 PM 42.8 °F 38.0 °F 33.8 °F 70% 29.99 in 10.0 mi WNW 8.1 mph - N/A   Overcast
8:35 PM 42.8 °F 38.6 °F 33.8 °F 70% 29.98 in 10.0 mi WNW 6.9 mph - N/A   Overcast
8:55 PM 42.8 °F 38.0 °F 33.8 °F 70% 29.98 in 10.0 mi WNW 8.1 mph - N/A   Overcast
9:15 PM 41.0 °F 37.1 °F 33.8 °F 76% 29.98 in 10.0 mi West 5.8 mph - N/A   Overcast
9:35 PM 41.0 °F 36.4 °F 33.8 °F 76% 29.97 in 10.0 mi West 6.9 mph - N/A   Overcast
9:55 PM 41.0 °F 35.8 °F 33.8 °F 76% 29.96 in 10.0 mi West 8.1 mph - N/A   Overcast
10:15 PM 39.2 °F 32.5 °F 33.8 °F 81% 29.96 in 10.0 mi WNW 10.4 mph - N/A   Overcast
10:35 PM 39.2 °F 34.2 °F 33.8 °F 81% 29.96 in 10.0 mi WNW 6.9 mph - N/A   Overcast
10:55 PM 39.2 °F 35.0 °F 33.8 °F 81% 29.96 in 10.0 mi WNW 5.8 mph - N/A   Overcast
11:15 PM 39.2 °F 34.2 °F 33.8 °F 81% 29.96 in 10.0 mi WNW 6.9 mph - N/A   Overcast
11:35 PM 39.2 °F 34.2 °F 33.8 °F 81% 29.96 in 10.0 mi WNW 6.9 mph - N/A   Overcast
11:55 PM 39.2 °F 33.0 °F 33.8 °F 81% 29.95 in 10.0 mi WNW 9.2 mph - N/A   Overcast